Weather History for Newcastle, WY

Change the Weather History Date:

Monday, August 26, 2013

  Actual Average (KCUT) Record (KCUT)
Temperature  
Mean Temperature 78 °F 62 °F  
Max Temperature 91 °F 76 °F 92 °F (2010)
Min Temperature 64 °F 48 °F 29 °F (1960)
Degree Days  
Heating Degree Days 0 4  
Month to date heating degree days 69  
Since 1 June heating degree days 350  
Since 1 July heating degree days 130  
Cooling Degree Days 12 1  
Month to date cooling degree days 47  
Year to date cooling degree days 154  
Since 1 June cooling degree days 153  
Growing Degree Days 28 (Base 50)    
Moisture  
Dew Point 46 °F    
Average Humidity 35    
Maximum Humidity 59    
Minimum Humidity 17    
Precipitation  
Precipitation 0.00 in 0.08 in 1.75 in (1946)
Month to date precipitation 1.77  
Year to date precipitation 14.54  
Sea Level Pressure  
Sea Level Pressure 30.05 in    
Wind  
Wind Speed 4 mph (NW)    
Max Wind Speed 14 mph    
Max Gust Speed 18 mph    
Visibility 10 miles    
Events      
T = Trace of Precipitation, MM = Missing Value Source: NWS Daily Summary

Daily Weather History Graph

Daily Weather History Graph

Search for Another Location

Airport:

Trip Planner

Search our weather history database for the weather conditions in past years. The results will help you decide how hot, cold, wet, or windy it might be!

Date:

Astronomy

Aug. 26, 2013 Rise Set
Actual Time 6:14 AM MDT 7:42 PM MDT
Civil Twilight 5:44 AM MDT 8:12 PM MDT
Nautical Twilight 5:07 AM MDT 8:49 PM MDT
Astronomical Twilight 4:28 AM MDT 9:27 PM MDT
Moon 10:40 PM MDT (8/26) 12:32 PM MDT (8/26)
Length of Visible Light 14h 28m
Length of Day
13h 28m
Waning Gibbous, 66% of the Moon is Illuminated
Aug 26
Waning Gibbous
Aug 28
Last Quarter
Sep 5
New
Sep 12
First Quarter
Sep 19
Full

Hourly Weather History & Observations

Time (MDT) Temp. Dew Point Humidity Pressure Visibility Wind Dir Wind Speed Gust Speed Precip Events Conditions
12:15 AM 71.6 °F 48.2 °F 43% 30.06 in 10.0 mi Calm Calm - N/A   Clear
12:35 AM 73.4 °F 46.4 °F 38% 30.05 in 10.0 mi Calm Calm - N/A   Clear
12:55 AM 73.4 °F 46.4 °F 38% 30.05 in 10.0 mi NNE 5.8 mph - N/A   Clear
1:15 AM 73.4 °F 46.4 °F 38% 30.05 in 10.0 mi ENE 3.5 mph - N/A   Clear
1:35 AM 71.6 °F 46.4 °F 41% 30.04 in 10.0 mi NNE 3.5 mph - N/A   Clear
1:55 AM 71.6 °F 46.4 °F 41% 30.04 in 10.0 mi Calm Calm - N/A   Clear
2:15 AM 71.6 °F 48.2 °F 43% 30.04 in 10.0 mi Calm Calm - N/A   Clear
2:35 AM 71.6 °F 48.2 °F 43% 30.04 in 10.0 mi Calm Calm - N/A   Clear
2:55 AM 71.6 °F 50.0 °F 46% 30.04 in 10.0 mi Calm Calm - N/A   Clear
3:15 AM 69.8 °F 50.0 °F 49% 30.05 in 10.0 mi Calm Calm - N/A   Clear
3:35 AM 69.8 °F 48.2 °F 46% 30.05 in 10.0 mi North 4.6 mph - N/A   Clear
3:55 AM 69.8 °F 48.2 °F 46% 30.05 in 10.0 mi Calm Calm - N/A   Clear
4:15 AM 69.8 °F 48.2 °F 46% 30.06 in 10.0 mi North 3.5 mph - N/A   Clear
4:35 AM 69.8 °F 48.2 °F 46% 30.06 in 10.0 mi North 4.6 mph - N/A   Clear
4:55 AM 69.8 °F 48.2 °F 46% 30.07 in 10.0 mi North 4.6 mph - N/A   Clear
5:15 AM 68.0 °F 48.2 °F 49% 30.07 in 10.0 mi North 5.8 mph - N/A   Clear
5:35 AM 64.4 °F 50.0 °F 59% 30.08 in 10.0 mi North 4.6 mph - N/A   Clear
5:55 AM 64.4 °F 48.2 °F 56% 30.08 in 10.0 mi Calm Calm - N/A   Clear
6:15 AM 64.4 °F 48.2 °F 56% 30.09 in 10.0 mi Calm Calm - N/A   Clear
6:35 AM 68.0 °F 46.4 °F 46% 30.09 in 10.0 mi NNE 3.5 mph - N/A   Scattered Clouds
6:55 AM 66.2 °F 50.0 °F 56% 30.09 in 10.0 mi Calm Calm - N/A   Scattered Clouds
7:15 AM 66.2 °F 50.0 °F 56% 30.09 in 10.0 mi North 4.6 mph - N/A   Scattered Clouds
7:35 AM 68.0 °F 50.0 °F 52% 30.09 in 10.0 mi North - - N/A   Clear
7:55 AM 71.6 °F 50.0 °F 46% 30.09 in 10.0 mi Calm Calm - N/A   Clear
8:15 AM 73.4 °F 50.0 °F 44% 30.09 in 10.0 mi Calm Calm - N/A   Clear
8:35 AM 75.2 °F 48.2 °F 38% 30.09 in 10.0 mi Calm Calm - N/A   Clear
8:55 AM 77.0 °F 48.2 °F 36% 30.09 in 10.0 mi SSE 3.5 mph - N/A   Clear
9:15 AM 78.8 °F 48.2 °F 34% 30.08 in 10.0 mi SSE 4.6 mph - N/A   Clear
9:35 AM 78.8 °F 48.2 °F 34% 30.07 in 10.0 mi SSE 9.2 mph - N/A   Clear
9:55 AM 78.8 °F 48.2 °F 34% 30.08 in 10.0 mi South 11.5 mph 18.4 mph N/A   Clear
10:15 AM 78.8 °F 48.2 °F 34% 30.08 in 10.0 mi South 10.4 mph 16.1 mph N/A   Clear
10:35 AM 80.6 °F 48.2 °F 32% 30.07 in 10.0 mi South 11.5 mph - N/A   Clear
10:55 AM 82.4 °F 48.2 °F 30% 30.07 in 10.0 mi SSW 11.5 mph 17.3 mph N/A   Clear
11:15 AM 82.4 °F 48.2 °F 30% 30.08 in 10.0 mi SSW 11.5 mph - N/A   Clear
11:35 AM 82.4 °F 46.4 °F 28% 30.07 in 7.0 mi North - - N/A   Clear
11:55 AM 86.0 °F 44.6 °F 23% 30.06 in 10.0 mi SSW 10.4 mph - N/A   Clear
12:15 PM 86.0 °F 44.6 °F 23% 30.05 in 10.0 mi North - - N/A   Clear
12:35 PM 86.0 °F 44.6 °F 23% 30.05 in 10.0 mi WSW 8.1 mph - N/A   Clear
12:55 PM 87.8 °F 44.6 °F 22% 30.04 in 10.0 mi SW 8.1 mph - N/A   Clear
1:15 PM 87.8 °F 44.6 °F 22% 30.04 in 10.0 mi SW 5.8 mph 9.2 mph N/A   Clear
1:35 PM 87.8 °F 42.8 °F 21% 30.04 in 10.0 mi WSW 11.5 mph 17.3 mph N/A   Clear
1:55 PM 87.8 °F 42.8 °F 21% 30.03 in 10.0 mi North - - N/A   Clear
2:15 PM 89.6 °F 42.8 °F 20% 30.02 in 10.0 mi SSW 12.7 mph 18.4 mph N/A   Clear
2:35 PM 89.6 °F 42.8 °F 20% 30.02 in 10.0 mi South 12.7 mph 17.3 mph N/A   Clear
2:55 PM 91.4 °F 41.0 °F 17% 30.01 in 10.0 mi WSW 3.5 mph - N/A   Clear
3:15 PM 91.4 °F 41.0 °F 17% 30.01 in 10.0 mi WNW 8.1 mph - N/A   Clear
3:35 PM 91.4 °F 41.0 °F 17% 30.01 in 10.0 mi West 10.4 mph 18.4 mph N/A   Clear
3:55 PM 91.4 °F 41.0 °F 17% 30.00 in 10.0 mi WNW 10.4 mph 18.4 mph N/A   Clear
4:15 PM 91.4 °F 41.0 °F 17% 30.00 in 10.0 mi North - - N/A   Clear
4:35 PM 91.4 °F 41.0 °F 17% 30.01 in 10.0 mi North - - N/A   Clear
4:55 PM 91.4 °F 41.0 °F 17% 30.02 in 10.0 mi WNW 11.5 mph 16.1 mph N/A   Clear
5:15 PM 91.4 °F 41.0 °F 17% 30.02 in 10.0 mi West 13.8 mph - N/A   Clear
5:35 PM 89.6 °F 41.0 °F 18% 30.02 in 5.0 mi NW 8.1 mph - N/A   Haze
5:55 PM 89.6 °F 42.8 °F 20% 30.02 in 10.0 mi NW 9.2 mph - N/A   Clear
6:15 PM 89.6 °F 41.0 °F 18% 30.02 in 10.0 mi NW 8.1 mph - N/A   Clear
6:35 PM 87.8 °F 42.8 °F 21% 30.02 in 10.0 mi NW 8.1 mph - N/A   Clear
6:55 PM 87.8 °F 44.6 °F 22% 30.02 in 10.0 mi NNW 5.8 mph - N/A   Clear
7:15 PM 86.0 °F 44.6 °F 23% 30.02 in 10.0 mi NNW 6.9 mph - N/A   Clear
7:35 PM 82.4 °F 44.6 °F 26% 30.02 in 10.0 mi NNW 5.8 mph - N/A   Clear
7:55 PM 78.8 °F 44.6 °F 30% 30.02 in 10.0 mi NNW 6.9 mph - N/A   Clear
8:15 PM 78.8 °F 44.6 °F 30% 30.03 in 10.0 mi North 8.1 mph - N/A   Clear
8:35 PM 78.8 °F 46.4 °F 32% 30.03 in 10.0 mi North 8.1 mph - N/A   Clear
8:55 PM 77.0 °F 46.4 °F 34% 30.03 in 10.0 mi North 8.1 mph - N/A   Clear
9:15 PM 75.2 °F 46.4 °F 36% 30.03 in 10.0 mi NNE 4.6 mph - N/A   Clear
9:35 PM 73.4 °F 46.4 °F 38% 30.04 in 10.0 mi North 6.9 mph - N/A   Clear
9:55 PM 73.4 °F 46.4 °F 38% 30.04 in 10.0 mi North 4.6 mph - N/A   Clear
10:15 PM 71.6 °F 48.2 °F 43% 30.04 in 10.0 mi Calm Calm - N/A   Clear
10:35 PM 69.8 °F 50.0 °F 49% 30.04 in 10.0 mi North 6.9 mph - N/A   Clear
10:55 PM 69.8 °F 48.2 °F 46% 30.04 in 10.0 mi Calm Calm - N/A   Clear
11:15 PM 69.8 °F 48.2 °F 46% 30.04 in 10.0 mi Calm Calm - N/A   Clear
11:35 PM 68.0 °F 50.0 °F 52% 30.04 in 10.0 mi NW 3.5 mph - N/A   Clear
11:55 PM 69.8 °F 48.2 °F 46% 30.05 in 10.0 mi Calm Calm - N/A   Clear